| time (UTC) | temp C | wind direction | speed KPH | gust KPH | rain 1hr cm | rain 24hr cm | rain mn cm | humidity % | barometer mb |
| 20260505071556 | 18 | 335 | 8.0 | 19.3 | 0.00 | 0.00 | 0.00 | 64 | 1009.9 |
| 20260505070110 | 18 | 5 | 8.0 | 17.7 | 0.00 | 0.00 | 0.00 | 64 | 1010.0 |
| 20260505064550 | 18 | 344 | 3.2 | 16.1 | 0.00 | 0.00 | 0.00 | 64 | 1010.1 |
| 20260505063049 | 19 | 340 | 4.8 | 19.3 | 0.00 | 0.00 | 0.00 | 64 | 1010.1 |
| 20260505061552 | 19 | 20 | 4.8 | 20.9 | 0.00 | 0.00 | 0.00 | 64 | 1010.0 |
| 20260505060056 | 19 | 17 | 8.0 | 20.9 | 0.00 | 0.00 | 0.00 | 63 | 1009.8 |
| 20260505054555 | 19 | 319 | 9.7 | 19.3 | 0.00 | 0.00 | 0.00 | 64 | 1009.8 |
| 20260505053102 | 19 | 352 | 6.4 | 20.9 | 0.00 | 0.00 | 0.00 | 64 | 1009.7 |
| 20260505051550 | 19 | 336 | 8.0 | 20.9 | 0.00 | 0.00 | 0.00 | 64 | 1009.7 |
| 20260505041553 | 20 | 352 | 4.8 | 14.5 | 0.00 | 0.00 | 0.00 | 66 | 1010.2 |
| 20260505040051 | 20 | 5 | 4.8 | 12.9 | 0.00 | 0.00 | 0.00 | 67 | 1010.3 |
| 20260505034551 | 20 | 11 | 4.8 | 14.5 | 0.00 | 0.00 | 0.00 | 67 | 1010.1 |
| 20260505033053 | 20 | 5 | 4.8 | 12.9 | 0.00 | 0.00 | 0.00 | 66 | 1010.0 |
| 20260505031555 | 20 | 360 | 3.2 | 8.0 | 0.00 | 0.00 | 0.00 | 66 | 1009.9 |
| 20260505030058 | 20 | 313 | 3.2 | 9.7 | 0.00 | 0.00 | 0.00 | 66 | 1009.9 |
| 20260505024555 | 20 | 346 | 3.2 | 12.9 | 0.00 | 0.00 | 0.00 | 68 | 1009.7 |
| 20260505023058 | 19 | 352 | 0.0 | 9.7 | 0.00 | 0.00 | 0.00 | 73 | 1009.6 |
| 20260505021559 | 20 | 360 | 0.0 | 8.0 | 0.00 | 0.00 | 0.00 | 68 | 1009.2 |
| 20260505020055 | 20 | 352 | 1.6 | 9.7 | 0.00 | 0.00 | 0.00 | 65 | 1009.0 |
| 20260505014553 | 21 | 348 | 3.2 | 8.0 | 0.00 | 0.00 | 0.00 | 63 | 1008.8 |
| 20260505013057 | 21 | 352 | 4.8 | 9.7 | 0.00 | 0.00 | 0.00 | 62 | 1008.8 |
| 20260505011553 | 21 | 360 | 0.0 | 6.4 | 0.00 | 0.00 | 0.00 | 60 | 1008.5 |
| 20260505010101 | 22 | 342 | 1.6 | 12.9 | 0.00 | 0.00 | 0.00 | 57 | 1008.7 |
| 20260505004553 | 22 | 345 | 3.2 | 12.9 | 0.00 | 0.00 | 0.00 | 56 | 1008.6 |
| 20260505003059 | 23 | 342 | 3.2 | 14.5 | 0.00 | 0.00 | 0.00 | 55 | 1008.8 |
| 20260505001558 | 23 | 339 | 4.8 | 16.1 | 0.00 | 0.00 | 0.00 | 55 | 1008.8 |
| 20260505000108 | 23 | 331 | 8.0 | 24.1 | 0.00 | 0.00 | 0.00 | 54 | 1008.8 |
| 20260504234551 | 23 | 352 | 9.7 | 24.1 | 0.00 | 0.00 | 0.00 | 54 | 1008.6 |
| 20260504233055 | 24 | 348 | 4.8 | 14.5 | 0.00 | 0.00 | 0.00 | 53 | 1009.0 |
| 20260504231555 | 24 | 19 | 3.2 | 17.7 | 0.00 | 0.00 | 0.00 | 53 | 1009.4 |
| 20260504230057 | 24 | 338 | 4.8 | 17.7 | 0.00 | 0.00 | 0.00 | 52 | 1009.4 |
| 20260504224601 | 24 | 307 | 6.4 | 27.4 | 0.00 | 0.00 | 0.00 | 51 | 1009.7 |
| 20260504223049 | 24 | 321 | 6.4 | 25.7 | 0.00 | 0.00 | 0.00 | 50 | 1009.9 |
| 20260504221554 | 24 | 27 | 9.7 | 25.7 | 0.00 | 0.00 | 0.00 | 49 | 1009.9 |
| 20260504220112 | 25 | 341 | 4.8 | 17.7 | 0.00 | 0.00 | 0.00 | 50 | 1010.0 |
| 20260504214555 | 25 | 5 | 8.0 | 24.1 | 0.00 | 0.00 | 0.00 | 49 | 1009.9 |
| 20260504213107 | 25 | 161 | 3.2 | 20.9 | 0.00 | 0.00 | 0.00 | 48 | 1010.0 |
| 20260504211559 | 25 | 26 | 6.4 | 20.9 | 0.00 | 0.00 | 0.00 | 48 | 1010.1 |
| 20260504210056 | 25 | 335 | 8.0 | 27.4 | 0.00 | 0.00 | 0.00 | 52 | 1010.0 |
| 20260504204556 | 25 | 40 | 4.8 | 20.9 | 0.00 | 0.00 | 0.00 | 52 | 1010.1 |
| 20260504203057 | 25 | 13 | 11.3 | 25.7 | 0.00 | 0.00 | 0.00 | 52 | 1010.2 |
| 20260504201559 | 24 | 106 | 6.4 | 20.9 | 0.00 | 0.00 | 0.00 | 55 | 1010.5 |
| 20260504200100 | 25 | 150 | 3.2 | 16.1 | 0.00 | 0.00 | 0.00 | 52 | 1010.8 |
| 20260504194555 | 25 | 180 | 8.0 | 17.7 | 0.00 | 0.00 | 0.00 | 53 | 1011.1 |
| 20260504193055 | 24 | 324 | 8.0 | 19.3 | 0.00 | 0.00 | 0.00 | 55 | 1011.3 |
| 20260504191600 | 23 | 348 | 8.0 | 22.5 | 0.00 | 0.00 | 0.00 | 55 | 1011.6 |
| 20260504190109 | 23 | 32 | 8.0 | 20.9 | 0.00 | 0.00 | 0.00 | 55 | 1011.7 |
| 20260504184610 | 23 | 343 | 6.4 | 20.9 | 0.00 | 0.00 | 0.00 | 59 | 1011.7 |
| 20260504183053 | 23 | 309 | 4.8 | 19.3 | 0.00 | 0.00 | 0.00 | 60 | 1011.5 |
| 20260504181559 | 22 | 11 | 9.7 | 32.2 | 0.00 | 0.00 | 0.00 | 60 | 1011.3 |
| 20260504180052 | 22 | 331 | 9.7 | 25.7 | 0.00 | 0.00 | 0.00 | 60 | 1011.3 |
| 20260504174549 | 21 | 328 | 12.9 | 30.6 | 0.00 | 0.00 | 0.00 | 62 | 1011.6 |
| 20260504173103 | 21 | 315 | 9.7 | 22.5 | 0.00 | 0.00 | 0.00 | 63 | 1011.7 |
| 20260504171554 | 20 | 329 | 11.3 | 29.0 | 0.00 | 0.00 | 0.00 | 64 | 1011.7 |
| 20260504120104 | 12 | 352 | 8.0 | 16.1 | 0.00 | 0.00 | 0.00 | 76 | 1013.6 |
| 20260504081555 | 12 | 33 | 3.2 | 17.7 | 0.00 | 0.00 | 0.00 | 64 | 1013.6 |